Location: Brunsen
(51.8651°N, 9.8610°E)
Time: 10:44:15
(UTC+00:00)

Cosmos 1400 Rocket - Pass Details

Date: 23 May 2024
Orbit: 501 x 544 km, 81.2° (Epoch: 18 June)

Event Time Altitude Azimuth Distance (km) Brightness Sun altitude
Exits shadow 00:33:05 26° 228° (SW) 1,086 3.8 -15.6°
Maximum altitude 00:34:58 47° 288° (WNW) 729 3.4 -15.5°
Drops below altitude 10° 00:38:51 10° 3° (N) 1,817 6.7 -15.3°
Sets 00:41:04 0° 9° (N) 2,708 8.1 -15.2°
